Location: *
(43.7000°S, 168.7000°W)
Time: 14:54:25
(UTC+00:00)

Cosmos 1980 Rocket - Pass Details

Date: 07 July 2020
Orbit: 828 x 851 km, 71.0° (Epoch: 04 August)

Event Time Altitude Azimuth Distance (km) Brightness Sun altitude
Rises 17:31:19 0° 345° (NNW) 3,386 5.4 -13.3°
Reaches altitude 10° 17:33:45 10° 347° (NNW) 2,456 4.7 -12.9°
Maximum altitude 17:39:21 68° 69° (ENE) 906 2.6 -12.0°
Drops below altitude 10° 17:44:59 10° 150° (SSE) 2,472 4.8 -11.0°
Sets 17:47:26 0° 152° (SSE) 3,410 5.4 -10.6°
